Regional Weather Roundup
Issued by NWS

Home | Current Version | Previous Version | Graphics & Text | Print | Product List | Glossary On
Versions: 1 2 3 4 5 6 7 8 9 10 11 12 13 14 15 16 17 18 19 20 21 22 23 24 25 26 27 28 29 30 31 32 33 34 35 36 37 38 39 40 41 42 43 44 45 46 47 48 49 50
000
ASUS43 KLOT 301710
RWRIL

ILLINOIS REGIONAL WEATHER ROUNDUP
NATIONAL WEATHER SERVICE CHICAGO/ROMEOVILLE IL
1100 AM CST FRI JAN 30 2015

NOTE: "FAIR" INDICATES FEW OR NO CLOUDS BELOW 12,000 FEET WITH NO
SIGNIFICANT WEATHER AND/OR OBSTRUCTIONS TO VISIBILITY.

* THESE STATIONS ARE NOT UNDER NWS QUALITY CONTROL. THEY ALSO MAY NOT
  REPORT WEATHER SUCH AS PRECIPITATION OR FOG.

ILZ001-002-007-009-015-016-024-301800-
NORTHWEST ILLINOIS

CITY           SKY/WX    TMP DP  RH WIND       PRES   REMARKS
MOLINE         SUNNY     24  11  57 E3        30.54F
STERLING*      FAIR      25  10  54 N5        30.55S WCI  19
SAVANNA*       MOSUNNY   24  11  58 CALM      30.56F
$$

ILZ003-004-008-010-011-017-018-301800-
NORTH CENTRAL ILLINOIS

CITY           SKY/WX    TMP DP  RH WIND       PRES   REMARKS
ROCKFORD       MOSUNNY   25   8  48 N3        30.56S
FREEPORT*      MOSUNNY   22   9  58 CALM      30.56S
ROCHELLE*      SUNNY     23  11  61 NE5       30.54F WCI  17
DE KALB*       SUNNY     22  10  59 N3        30.53S
PERU*          SUNNY     26  14  58 NE3       30.55S
$$

ILZ005-006-012>014-019>023-301800-
NORTHEAST ILLINOIS

CITY           SKY/WX    TMP DP  RH WIND       PRES   REMARKS
CHICAGO-OHARE  MOSUNNY   26   7  44 VRB3      30.52S
CHICAGO-MIDWAY MOSUNNY   28   9  44 CALM      30.53R
AURORA         SUNNY     26   8  46 NW5       30.54R WCI  20
LANSING*       MOSUNNY   28  13  53 N6        30.52F WCI  21
JOLIET*        SUNNY     26   9  48 CALM      30.54S
WAUKEGAN       SUNNY     25   7  46 VRB3      30.52R
DUPAGE AIRPORT SUNNY     26   9  48 NW6       30.53R WCI  19
KANKAKEE*      SUNNY     28  13  53 NW3       30.54S
WHEELING       SUNNY     25   8  48 E5        30.54R WCI  19
MORRIS*        SUNNY     27  15  61 CALM      30.54S
ROMEOVILLE*    SUNNY     26   8  46 N3        30.54R
NORTHERLY ISL    N/A     26  14  60 N13         N/A  WCI  15
$$

LMZ740>746-301800-
SOUTHERN LAKE MICHIGAN

STATION/POSITION SKY/WX   TEMP    WIND        PRES    VSBY  WAVE
                          AIR SEA DIR/SP/G                  HT/PER
                          (F)     (DEG/KT/KT) (MB)    (MI)  (FT/S)
WAUKEGAN HARBOR            22      40/ 10/ 13   N/A
HARRISON CRIB              23     340/ 13/ 16   N/A
BURNHAM HARBOR             26      10/ 10/ 11   N/A
CALUMET HARBOR             26     340/  9/ 13   N/A
MICHIGAN CITY              24     350/ 16/ 19   N/A
$$

ILZ025>027-034>036-040-047-049-050-058-095>099-301800-
WEST-CENTRAL ILLINOIS

CITY           SKY/WX    TMP DP  RH WIND       PRES   REMARKS
QUINCY         SUNNY     28  15  58 CALM      30.55F
GALESBURG*     SUNNY     26  16  66 E5        30.54F WCI  21
MACOMB*        SUNNY     27  18  69 CALM      30.58S
JACKSONVILLE*  SUNNY     32  19  58 E3        30.56S
PITTSFIELD*    SUNNY     31  18  58 CALM      30.56F
$$

ILZ028>032-037-038-041>044-048-051>054-059>061-301800-
CENTRAL ILLINOIS

CITY           SKY/WX    TMP DP  RH WIND       PRES   REMARKS
PONTIAC        SUNNY     28  17  63 CALM      30.55S
BLOOMINGTON    MOSUNNY   28  18  66 N3        30.54S
DECATUR        SUNNY     32  17  54 NE7       30.54S WCI  26
PEORIA         SUNNY     30  16  56 E3        30.55F
LACON*         SUNNY     28  14  57 CALM      30.55F
LINCOLN*       SUNNY     31  20  62 NE3       30.56F
SPRINGFIELD    SUNNY     32  19  58 N3        30.56S
TAYLORVILLE    MOSUNNY   30  21  69 N7        30.55F WCI  23
$$

ILZ033-039-045-046-055>057-062-063-301800-
EAST-CENTRAL ILLINOIS

CITY           SKY/WX    TMP DP  RH WIND       PRES   REMARKS
CHAMPAIGN      SUNNY     30  15  53 NE5       30.53S WCI  25
DANVILLE*      SUNNY     29  16  57 N8        30.50S WCI  21
RANTOUL*       SUNNY     31  15  51 N7        30.54R WCI  24
MATTOON        MOSUNNY   31  18  58 NE8       30.53S WCI  23
PARIS*         SUNNY     31  17  54 NW3       30.54S
$$

ILZ079-100>102-301800-
SOUTHWEST ILLINOIS

CITY           SKY/WX    TMP DP  RH WIND       PRES   REMARKS
ALTON          SUNNY     32  18  55 N6        30.56S WCI  26
BELLEVILLE     SUNNY     35  20  55 N8        30.56R WCI  28
CAHOKIA*       SUNNY     34  19  54 NE5       30.57R WCI  30
SPARTA*        SUNNY     33  22  65 N6        30.56S WCI  27
$$

ILZ064>066-069>071-074>076-080>082-084>086-088>090-092>094-301800-
SOUTH-CENTRAL ILLINOIS

CITY           SKY/WX    TMP DP  RH WIND       PRES   REMARKS
CARBONDALE     SUNNY     35  20  54 N8        30.55F WCI  29
CAIRO*         SUNNY     40  24  52 NE10      30.56S
EFFINGHAM*     SUNNY     32  15  49 NW6       30.56F WCI  27
MARION         SUNNY     36  21  55 N12       30.56S WCI  27
MT. VERNON     MOSUNNY   34  19  55 N8        30.55F WCI  27
CENTRALIA*     SUNNY     33  20  59 N6        30.54F WCI  27
SALEM*         SUNNY     35  22  60 N6        30.55S WCI  29
METROPOLIS*    SUNNY     39  24  54 N7        30.53F WCI  34
$$

ILZ067-068-072-073-078-083-087-091-301800-
SOUTHEAST ILLINOIS

CITY           SKY/WX    TMP DP  RH WIND       PRES   REMARKS
LAWRENCEVILLE  PTSUNNY   33  21  61 N14       30.55R WCI  23
FLORA*         SUNNY     33  21  60 N9        30.55F WCI  26
FAIRFIELD*     MOSUNNY   35  22  59 NE9       30.54F WCI  27
HARRISBURG*    SUNNY     36  22  57 N7        30.56F WCI  30
ROBINSON*      PTSUNNY   32  22  64 NW6       30.55S WCI  27
CARMI*         SUNNY     37  25  60 N9        30.55S WCI  31
$$

ABBREVIATIONS USED IN REMARKS
   TC - TEMPERATURE IN CELSIUS
  WCI - WIND CHILL INDEX
   HX - HEAT INDEX
  VSB - VISIBILITY
$$




USA.gov is the U.S. government's official web portal to all federal, state and local government web resources and services.